SCP
0 0 0 0 0 0 0 0 0 0 0 0 0 0 0 0 0 0 0 0 0 0
0 0 0 0 0 0 0 0 0 0 0 0 0 0 0 0 0 0 0 0 0 0
0 0 0 0 0 0 0 0 0 0 0 0 0 0 0 0 0 0 0 0 0 0
0 0 0 0 0 0 0 0 0 0 0 0 0 0 0 0 0 0 0 0 0 0
0 0 0 0 0 0 0 0 0 0 0 0 0 0 0 0 0 0 0 0 0 0
0 0 0 0 0 0 0 0 0 0 0 0 0 0 0 0 0 0 0 0 0 0
0 0 0 0 0 0 0 0 0 0 0 0 0 0 0 0 0 0 0 0 0 0
0 0 0 0 0 0 0 0 0 0 0 0 0 0 0 0 0 0 0 0 0 0
0 0 0 0 0 0 0 0 0 0 0 0 0 0 0 0 0 0 0 0 0 0
0 0 0 0 0 0 0 0 0 0 0 0 0 0 0 0 0 0 0 0 0 0
0 0 0 0 0 0 0 0 0 0 0 0 0 0 0 0 0 0 0 0 0 0
0 0 0 0 0 0 0 0 0 0 0 0 0 0 0 0 0 0 0 0 0 0
0 0 0 0 0 0 0 0 0 0 0 0 0 0 0 0 0 0 0 0 0 0
0 0 0 0 0 0 0 0 0 0 0 0 0 0 0 0 0 0 0 0 0 0
Wind_Speed_500mb
24 26 29 32 35 38 40 42 42 41 43 45 47 49 51 53 53 54 55 55 56 55
22 26 30 34 38 42 45 48 49 50 50 48 48 48 50 53 54 57 59 61 60 62
27 31 34 38 42 45 46 49 50 52 53 54 55 54 55 56 54 57 57 59 61 63
34 38 42 45 47 50 51 53 54 54 54 53 51 50 55 59 60 63 62 62 65 64
44 46 47 47 47 48 49 48 51 52 54 54 53 54 54 56 56 61 65 66 69 70
44 46 47 46 46 46 47 46 48 51 53 54 55 56 56 59 61 63 64 63 67 68
44 47 49 50 52 52 53 53 52 51 53 54 56 57 58 62 66 68 68 66 65 66
43 45 46 47 49 51 53 55 57 58 57 57 57 56 59 63 67 69 69 70 69 67
40 42 44 47 51 53 55 58 60 62 64 64 63 60 61 63 68 69 72 72 70 71
45 52 54 57 62 64 66 67 68 70 71 70 66 62 63 66 72 74 74 72 72 73
57 62 62 63 67 69 72 73 74 75 75 76 70 65 67 69 73 75 75 75 73 74
61 65 64 65 66 66 71 74 75 78 78 77 74 67 68 72 78 76 74 73 73 70
60 64 67 67 68 70 71 76 76 79 78 77 77 69 67 69 73 74 72 70 66 65
61 64 67 70 71 75 77 79 80 81 79 77 74 72 65 66 64 65 67 62 61 58
Wind_Direction_500mb
264 270 276 279 282 285 288 289 290 290 288 286 284 282 280 279 281 282 283 284 284 284
281 283 285 287 288 288 290 289 289 289 289 289 290 290 288 285 284 281 281 281 282 282
296 295 293 294 293 292 293 293 292 292 291 289 287 286 286 286 286 284 284 285 284 282
298 297 296 294 293 292 291 291 292 291 291 292 292 289 285 284 283 283 283 283 284 285
299 297 295 296 296 295 295 293 291 289 289 288 288 287 289 289 287 285 284 283 281 283
298 296 297 298 299 299 300 300 297 295 294 292 289 286 285 286 286 286 287 286 283 283
299 296 297 298 298 299 300 301 301 301 300 298 295 293 291 288 286 284 285 287 287 284
292 293 295 296 296 296 297 299 300 300 300 299 298 298 297 295 291 289 287 285 287 287
292 298 300 301 302 302 301 300 299 299 300 298 298 301 299 297 295 292 288 287 285 284
295 301 301 302 301 301 300 299 298 297 297 298 297 296 296 298 297 295 292 289 284 283
298 300 299 297 296 295 295 294 294 294 295 297 297 298 294 295 296 296 292 289 286 281
297 297 298 297 298 299 297 296 296 296 298 298 298 299 297 297 298 297 293 287 283 282
292 294 297 299 301 302 299 297 297 297 299 300 299 299 298 297 297 295 292 287 282 279
293 296 298 299 300 301 301 299 298 298 299 298 298 299 298 298 297 289 288 285 281 280
Wind_Speed_850mb
24 26 29 32 35 38 40 42 42 41 43 45 47 49 51 53 53 54 55 55 56 55
22 26 30 34 38 42 45 48 49 50 50 48 48 48 50 53 54 57 59 61 60 62
27 31 34 38 42 45 46 49 50 52 53 54 55 54 55 56 54 57 57 59 61 63
34 38 42 45 47 50 51 53 54 54 54 53 51 50 55 59 60 63 62 62 65 64
44 46 47 47 47 48 49 48 51 52 54 54 53 54 54 56 56 61 65 66 69 70
44 46 47 46 46 46 47 46 48 51 53 54 55 56 56 59 61 63 64 63 67 68
44 47 49 50 52 52 53 53 52 51 53 54 56 57 58 62 66 68 68 66 65 66
43 45 46 47 49 51 53 55 57 58 57 57 57 56 59 63 67 69 69 70 69 67
40 42 44 47 51 53 55 58 60 62 64 64 63 60 61 63 68 69 72 72 70 71
45 52 54 57 62 64 66 67 68 70 71 70 66 62 63 66 72 74 74 72 72 73
57 62 62 63 67 69 72 73 74 75 75 76 70 65 67 69 73 75 75 75 73 74
61 65 64 65 66 66 71 74 75 78 78 77 74 67 68 72 78 76 74 73 73 70
60 64 67 67 68 70 71 76 76 79 78 77 77 69 67 69 73 74 72 70 66 65
61 64 67 70 71 75 77 79 80 81 79 77 74 72 65 66 64 65 67 62 61 58
Wind_Direction_850mb
264 270 276 279 282 285 288 289 290 290 288 286 284 282 280 279 281 282 283 284 284 284
281 283 285 287 288 288 290 289 289 289 289 289 290 290 288 285 284 281 281 281 282 282
296 295 293 294 293 292 293 293 292 292 291 289 287 286 286 286 286 284 284 285 284 282
298 297 296 294 293 292 291 291 292 291 291 292 292 289 285 284 283 283 283 283 284 285
299 297 295 296 296 295 295 293 291 289 289 288 288 287 289 289 287 285 284 283 281 283
298 296 297 298 299 299 300 300 297 295 294 292 289 286 285 286 286 286 287 286 283 283
299 296 297 298 298 299 300 301 301 301 300 298 295 293 291 288 286 284 285 287 287 284
292 293 295 296 296 296 297 299 300 300 300 299 298 298 297 295 291 289 287 285 287 287
292 298 300 301 302 302 301 300 299 299 300 298 298 301 299 297 295 292 288 287 285 284
295 301 301 302 301 301 300 299 298 297 297 298 297 296 296 298 297 295 292 289 284 283
298 300 299 297 296 295 295 294 294 294 295 297 297 298 294 295 296 296 292 289 286 281
297 297 298 297 298 299 297 296 296 296 298 298 298 299 297 297 298 297 293 287 283 282
292 294 297 299 301 302 299 297 297 297 299 300 299 299 298 297 297 295 292 287 282 279
293 296 298 299 300 301 301 299 298 298 299 298 298 299 298 298 297 289 288 285 281 280